TAM3818 SBBR-SBFL

Flight info

Callsign TAM3818
Flight time 1h 56m
Altitude 34000
Route KUKOL UZ5 IMTBI DCT EDREX
Aircraft A21N/M-SDE2E3FGHIRWXY/LB1

Departure

Time 2026-05-06 23:13
Airport Presidente Juscelino Kubitschek International Airport (SBBR)

Arrival

Time 2026-05-07 01:09
Airport Hercílio Luz International Airport (SBFL)
Time Latitude Longitude Altitude Speed Heading
2026-05-06 22:38 -15.87271 -47.91890 3476 ft 0 kts 356°
2026-05-06 22:59 -15.87284 -47.91889 3529 ft 4 kts 356°
2026-05-06 22:59 -15.87309 -47.91890 3446 ft 4 kts 26°
2026-05-06 22:59 -15.87326 -47.91908 3474 ft 4 kts 72°
2026-05-06 23:00 -15.87329 -47.91924 3473 ft 1 kts 86°
2026-05-06 23:00 -15.87329 -47.91926 3475 ft 0 kts 86°
2026-05-06 23:05 -15.87325 -47.91864 3476 ft 33 kts 86°
2026-05-06 23:05 -15.87315 -47.91721 3476 ft 16 kts 85°
2026-05-06 23:06 -15.87393 -47.91663 3476 ft 17 kts 183°
2026-05-06 23:06 -15.87509 -47.91653 3468 ft 15 kts 176°
2026-05-06 23:06 -15.87597 -47.91645 3461 ft 13 kts 185°
2026-05-06 23:06 -15.87691 -47.91643 3462 ft 14 kts 186°
2026-05-06 23:07 -15.87740 -47.91731 3460 ft 16 kts 267°
2026-05-06 23:07 -15.87746 -47.91844 3461 ft 17 kts 266°
2026-05-06 23:07 -15.87755 -47.91974 3461 ft 19 kts 266°
2026-05-06 23:07 -15.87765 -47.92112 3462 ft 20 kts 266°
2026-05-06 23:08 -15.87776 -47.92261 3466 ft 22 kts 265°
2026-05-06 23:08 -15.87784 -47.92424 3472 ft 24 kts 266°
2026-05-06 23:08 -15.87795 -47.92600 3477 ft 25 kts 266°
2026-05-06 23:08 -15.87807 -47.92790 3482 ft 27 kts 266°
2026-05-06 23:09 -15.87817 -47.92945 3483 ft 28 kts 266°
2026-05-06 23:09 -15.87827 -47.93101 3485 ft 29 kts 266°
2026-05-06 23:09 -15.87841 -47.93320 3494 ft 31 kts 266°
2026-05-06 23:09 -15.87856 -47.93553 3499 ft 33 kts 266°
2026-05-06 23:10 -15.87872 -47.93799 3516 ft 35 kts 266°
2026-05-06 23:10 -15.87880 -47.93915 3515 ft 9 kts 266°
2026-05-06 23:10 -15.87909 -47.93983 3514 ft 12 kts 220°
2026-05-06 23:10 -15.87987 -47.94003 3521 ft 14 kts 171°
2026-05-06 23:11 -15.88058 -47.93933 3518 ft 15 kts 97°
2026-05-06 23:11 -15.88058 -47.93873 3515 ft 4 kts 89°
2026-05-06 23:11 -15.88056 -47.93841 3510 ft 5 kts 87°
2026-05-06 23:11 -15.88055 -47.93819 3510 ft 0 kts 87°
2026-05-06 23:12 -15.88054 -47.93810 3509 ft 12 kts 87°
2026-05-06 23:12 -15.88038 -47.93446 3496 ft 90 kts 86°
2026-05-06 23:12 -15.87974 -47.92562 3479 ft 148 kts 86°
2026-05-06 23:12 -15.87899 -47.91331 3541 ft 176 kts 86°
2026-05-06 23:13 -15.87815 -47.90127 4171 ft 171 kts 93°
2026-05-06 23:13 -15.88126 -47.88962 4727 ft 170 kts 121°
2026-05-06 23:13 -15.89002 -47.88133 5218 ft 179 kts 150°
2026-05-06 23:13 -15.90291 -47.87779 5514 ft 202 kts 167°
2026-05-06 23:14 -15.91698 -47.87539 5934 ft 216 kts 166°
2026-05-06 23:14 -15.93225 -47.87248 6417 ft 230 kts 166°
2026-05-06 23:14 -15.94880 -47.86917 6726 ft 254 kts 165°
2026-05-06 23:14 -15.96681 -47.86550 7117 ft 273 kts 166°
2026-05-06 23:15 -15.98571 -47.86165 7745 ft 280 kts 166°
2026-05-06 23:15 -16.00503 -47.85769 8494 ft 285 kts 165°
2026-05-06 23:15 -16.02463 -47.85396 9254 ft 290 kts 170°
2026-05-06 23:15 -16.04494 -47.85569 9980 ft 300 kts 196°
2026-05-06 23:16 -16.06324 -47.86694 10486 ft 317 kts 222°
2026-05-06 23:16 -16.07609 -47.88634 10786 ft 337 kts 247°
2026-05-06 23:16 -16.08100 -47.91061 11052 ft 355 kts 269°
2026-05-06 23:16 -16.08028 -47.93695 11329 ft 372 kts 273°
2026-05-06 23:17 -16.07983 -47.96444 11647 ft 387 kts 268°
2026-05-06 23:17 -16.08459 -47.99193 12219 ft 392 kts 250°
2026-05-06 23:17 -16.09643 -48.01773 12889 ft 394 kts 240°
2026-05-06 23:17 -16.10971 -48.04238 13508 ft 397 kts 239°
2026-05-06 23:18 -16.12609 -48.06543 14082 ft 399 kts 224°
2026-05-06 23:18 -16.14852 -48.08314 14616 ft 399 kts 211°
2026-05-06 23:18 -16.17217 -48.09838 15142 ft 402 kts 210°
2026-05-06 23:18 -16.19605 -48.11380 15666 ft 405 kts 211°
2026-05-06 23:19 -16.21930 -48.12914 16198 ft 408 kts 211°
2026-05-06 23:19 -16.24331 -48.14522 16734 ft 410 kts 212°
2026-05-06 23:19 -16.26728 -48.16145 17261 ft 413 kts 212°
2026-05-06 23:19 -16.29148 -48.17784 17788 ft 416 kts 212°
2026-05-06 23:20 -16.31584 -48.19432 18297 ft 418 kts 212°
2026-05-06 23:20 -16.33993 -48.21066 18742 ft 420 kts 212°
2026-05-06 23:20 -16.36483 -48.22756 19217 ft 422 kts 212°
2026-05-06 23:20 -16.38950 -48.24431 19670 ft 423 kts 211°
2026-05-06 23:21 -16.41412 -48.26100 20150 ft 424 kts 211°
2026-05-06 23:21 -16.43887 -48.27780 20624 ft 425 kts 211°
2026-05-06 23:21 -16.46334 -48.29442 21088 ft 426 kts 211°
2026-05-06 23:21 -16.48825 -48.31134 21544 ft 427 kts 211°
2026-05-06 23:22 -16.51318 -48.32827 22004 ft 428 kts 211°
2026-05-06 23:22 -16.53823 -48.34528 22464 ft 429 kts 210°
2026-05-06 23:22 -16.56365 -48.36258 22933 ft 431 kts 210°
2026-05-06 23:22 -16.58887 -48.37973 23387 ft 433 kts 210°
2026-05-06 23:23 -16.61414 -48.39689 23809 ft 434 kts 210°
2026-05-06 23:23 -16.63952 -48.41416 24191 ft 435 kts 210°
2026-05-06 23:23 -16.66513 -48.43102 24560 ft 435 kts 207°
2026-05-06 23:23 -16.69231 -48.44392 24921 ft 433 kts 197°
2026-05-06 23:24 -16.72122 -48.45116 25286 ft 431 kts 186°
2026-05-06 23:24 -16.75122 -48.45414 25665 ft 432 kts 183°
2026-05-06 23:24 -16.78089 -48.45636 26031 ft 433 kts 183°
2026-05-06 23:24 -16.81107 -48.45863 26399 ft 434 kts 184°
2026-05-06 23:25 -16.84135 -48.46103 26758 ft 436 kts 184°
2026-05-06 23:25 -16.87162 -48.46353 27111 ft 437 kts 184°
2026-05-06 23:25 -16.90204 -48.46607 27438 ft 438 kts 184°
2026-05-06 23:25 -16.93247 -48.46860 27804 ft 438 kts 184°
2026-05-06 23:26 -16.96290 -48.47115 28270 ft 436 kts 184°
2026-05-06 23:26 -16.99308 -48.47368 28745 ft 434 kts 185°
2026-05-06 23:26 -17.02305 -48.47619 29216 ft 431 kts 185°
2026-05-06 23:26 -17.05276 -48.47866 29698 ft 428 kts 185°
2026-05-06 23:27 -17.08250 -48.48115 30135 ft 426 kts 185°
2026-05-06 23:27 -17.11134 -48.48354 30481 ft 424 kts 185°
2026-05-06 23:27 -17.14060 -48.48599 30786 ft 424 kts 185°
2026-05-06 23:27 -17.17030 -48.48847 31099 ft 423 kts 185°
2026-05-06 23:28 -17.18946 -48.49009 31275 ft 423 kts 185°
2026-05-06 23:28 -17.22871 -48.49339 31670 ft 423 kts 185°
2026-05-06 23:28 -17.25832 -48.49587 31960 ft 422 kts 186°
2026-05-06 23:28 -17.27774 -48.49749 32150 ft 421 kts 186°
2026-05-06 23:29 -17.31604 -48.50070 32531 ft 421 kts 186°
2026-05-06 23:29 -17.34520 -48.50316 32801 ft 420 kts 186°
2026-05-06 23:29 -17.37441 -48.50563 33072 ft 420 kts 186°
2026-05-06 23:29 -17.40354 -48.50809 33335 ft 419 kts 186°
2026-05-06 23:30 -17.43265 -48.51054 33604 ft 418 kts 186°
2026-05-06 23:30 -17.45180 -48.51214 33787 ft 418 kts 186°
2026-05-06 23:30 -17.49064 -48.51539 34096 ft 417 kts 186°
2026-05-06 23:31 -17.54814 -48.52024 34140 ft 416 kts 186°
2026-05-06 23:31 -17.60588 -48.52510 34104 ft 416 kts 186°
2026-05-06 23:32 -17.65430 -48.52918 34109 ft 416 kts 186°
2026-05-06 23:32 -17.71208 -48.53405 34105 ft 416 kts 186°
2026-05-06 23:33 -17.76948 -48.53913 34104 ft 416 kts 186°
2026-05-06 23:33 -17.82728 -48.54437 34098 ft 416 kts 186°
2026-05-06 23:34 -17.88506 -48.54954 34096 ft 416 kts 186°
2026-05-06 23:34 -17.94209 -48.55466 34097 ft 416 kts 186°
2026-05-06 23:35 -17.99982 -48.55986 34097 ft 416 kts 186°
2026-05-06 23:35 -18.05720 -48.56502 34088 ft 416 kts 186°
2026-05-06 23:36 -18.11488 -48.57018 34088 ft 416 kts 186°
2026-05-06 23:36 -18.17273 -48.57539 34091 ft 416 kts 186°
2026-05-06 23:37 -18.23040 -48.58057 34095 ft 416 kts 186°
2026-05-06 23:37 -18.28775 -48.58573 34091 ft 416 kts 187°
2026-05-06 23:38 -18.34542 -48.59094 34096 ft 416 kts 187°
2026-05-06 23:38 -18.40313 -48.59615 34097 ft 416 kts 187°
2026-05-06 23:39 -18.46007 -48.60129 34098 ft 415 kts 187°
2026-05-06 23:39 -18.51781 -48.60651 34097 ft 415 kts 187°
2026-05-06 23:40 -18.57518 -48.61169 34097 ft 415 kts 186°
2026-05-06 23:40 -18.63281 -48.61686 34107 ft 415 kts 187°
2026-05-06 23:41 -18.69044 -48.62211 34108 ft 415 kts 187°
2026-05-06 23:41 -18.74798 -48.62735 34108 ft 415 kts 187°
2026-05-06 23:42 -18.80554 -48.63255 34111 ft 415 kts 187°
2026-05-06 23:42 -18.86309 -48.63777 34113 ft 415 kts 187°
2026-05-06 23:43 -18.92072 -48.64298 34109 ft 415 kts 187°
2026-05-06 23:43 -18.97800 -48.64818 34109 ft 415 kts 187°
2026-05-06 23:44 -19.03384 -48.65327 34111 ft 415 kts 187°
2026-05-06 23:44 -19.09276 -48.65862 34101 ft 415 kts 187°
2026-05-06 23:45 -19.15031 -48.66387 34105 ft 415 kts 187°
2026-05-06 23:45 -19.20749 -48.66936 34107 ft 415 kts 187°
2026-05-06 23:46 -19.26500 -48.67541 34106 ft 415 kts 187°
2026-05-06 23:46 -19.32254 -48.68140 34106 ft 415 kts 187°
2026-05-06 23:47 -19.38014 -48.68736 34103 ft 415 kts 187°
2026-05-06 23:47 -19.43725 -48.69329 34098 ft 415 kts 187°
2026-05-06 23:48 -19.49475 -48.69928 34097 ft 414 kts 187°
2026-05-06 23:48 -19.55218 -48.70526 34099 ft 414 kts 187°
2026-05-06 23:49 -19.60931 -48.71120 34098 ft 414 kts 187°
2026-05-06 23:49 -19.66664 -48.71717 34099 ft 414 kts 187°
2026-05-06 23:50 -19.72372 -48.72311 34100 ft 414 kts 187°
2026-05-06 23:50 -19.80979 -48.73208 34091 ft 414 kts 187°
2026-05-06 23:51 -19.86685 -48.73801 34092 ft 414 kts 187°
2026-05-06 23:51 -19.92422 -48.74399 34087 ft 414 kts 187°
2026-05-06 23:52 -19.98156 -48.74998 34084 ft 414 kts 187°
2026-05-06 23:52 -20.03877 -48.75597 34082 ft 414 kts 187°
2026-05-06 23:53 -20.09616 -48.76200 34082 ft 413 kts 187°
2026-05-06 23:53 -20.15332 -48.76797 34083 ft 413 kts 187°
2026-05-06 23:54 -20.21054 -48.77397 34077 ft 413 kts 187°
2026-05-06 23:54 -20.26757 -48.77993 34080 ft 413 kts 187°
2026-05-06 23:55 -20.32481 -48.78596 34083 ft 413 kts 187°
2026-05-06 23:55 -20.38203 -48.79192 34085 ft 413 kts 187°
2026-05-06 23:56 -20.43930 -48.79789 34087 ft 413 kts 187°
2026-05-06 23:56 -20.49607 -48.80382 34091 ft 413 kts 188°
2026-05-06 23:57 -20.55337 -48.80986 34090 ft 413 kts 188°
2026-05-06 23:57 -20.61051 -48.81586 34096 ft 413 kts 188°
2026-05-06 23:58 -20.66780 -48.82188 34089 ft 413 kts 188°
2026-05-06 23:58 -20.72433 -48.83005 34093 ft 412 kts 190°
2026-05-06 23:59 -20.78057 -48.83912 34086 ft 412 kts 191°
2026-05-06 23:59 -20.83730 -48.84822 34098 ft 412 kts 190°
2026-05-07 00:00 -20.89397 -48.85723 34094 ft 411 kts 190°
2026-05-07 00:00 -20.94103 -48.86474 34095 ft 412 kts 191°
2026-05-07 00:01 -21.00737 -48.87534 34102 ft 412 kts 191°
2026-05-07 00:01 -21.06370 -48.88435 34100 ft 412 kts 190°
2026-05-07 00:02 -21.12037 -48.89339 34098 ft 412 kts 191°
2026-05-07 00:02 -21.17702 -48.90244 34104 ft 412 kts 191°
2026-05-07 00:03 -21.23370 -48.91150 34094 ft 412 kts 191°
2026-05-07 00:03 -21.29051 -48.92062 34097 ft 412 kts 191°
2026-05-07 00:04 -21.34694 -48.92965 34094 ft 412 kts 191°
2026-05-07 00:04 -21.40332 -48.93868 34089 ft 412 kts 191°
2026-05-07 00:05 -21.46003 -48.94778 34096 ft 412 kts 191°
2026-05-07 00:05 -21.51676 -48.95692 34091 ft 412 kts 191°
2026-05-07 00:06 -21.57350 -48.96605 34087 ft 412 kts 191°
2026-05-07 00:06 -21.63023 -48.97515 34088 ft 412 kts 191°
2026-05-07 00:07 -21.68657 -48.98672 34091 ft 411 kts 195°
2026-05-07 00:07 -21.74190 -49.00039 34090 ft 411 kts 195°
2026-05-07 00:08 -21.79769 -49.01416 34091 ft 411 kts 195°
2026-05-07 00:08 -21.84413 -49.02560 34094 ft 411 kts 195°
2026-05-07 00:09 -21.90865 -49.04145 34087 ft 411 kts 195°
2026-05-07 00:09 -21.96441 -49.05519 34092 ft 410 kts 195°
2026-05-07 00:10 -22.01076 -49.06664 34090 ft 410 kts 195°
2026-05-07 00:10 -22.07588 -49.08272 34108 ft 411 kts 195°
2026-05-07 00:11 -22.12227 -49.09417 34117 ft 411 kts 195°
2026-05-07 00:11 -22.17803 -49.10797 34129 ft 411 kts 195°
2026-05-07 00:12 -22.23391 -49.12180 34135 ft 411 kts 195°
2026-05-07 00:12 -22.28965 -49.13560 34145 ft 411 kts 195°
2026-05-07 00:13 -22.34550 -49.14942 34146 ft 411 kts 195°
2026-05-07 00:13 -22.40086 -49.16341 34136 ft 410 kts 197°
2026-05-07 00:14 -22.45619 -49.17912 34135 ft 411 kts 197°
2026-05-07 00:14 -22.51149 -49.19489 34123 ft 411 kts 197°
2026-05-07 00:15 -22.56713 -49.20953 34115 ft 413 kts 191°
2026-05-07 00:15 -22.62460 -49.21253 34114 ft 416 kts 184°
2026-05-07 00:16 -22.68249 -49.21350 34109 ft 416 kts 185°
2026-05-07 00:16 -22.74044 -49.21470 34114 ft 416 kts 185°
2026-05-07 00:17 -22.79834 -49.21592 34111 ft 416 kts 185°
2026-05-07 00:17 -22.85635 -49.21717 34108 ft 416 kts 185°
2026-05-07 00:18 -22.91394 -49.21842 34110 ft 416 kts 185°
2026-05-07 00:18 -22.97227 -49.21967 34113 ft 416 kts 185°
2026-05-07 00:19 -23.02918 -49.22090 34103 ft 417 kts 185°
2026-05-07 00:19 -23.08734 -49.22217 34117 ft 417 kts 185°
2026-05-07 00:20 -23.14569 -49.22343 34116 ft 417 kts 185°
2026-05-07 00:20 -23.20341 -49.22466 34113 ft 417 kts 185°
2026-05-07 00:21 -23.26182 -49.22595 34115 ft 416 kts 185°
2026-05-07 00:21 -23.31983 -49.22722 34118 ft 417 kts 185°
2026-05-07 00:22 -23.37747 -49.22847 34118 ft 417 kts 185°
2026-05-07 00:22 -23.43565 -49.22974 34119 ft 417 kts 185°
2026-05-07 00:23 -23.49369 -49.23099 34118 ft 417 kts 185°
2026-05-07 00:23 -23.55174 -49.23225 34122 ft 416 kts 185°
2026-05-07 00:24 -23.60887 -49.23348 34127 ft 417 kts 185°
2026-05-07 00:24 -23.66685 -49.23475 34131 ft 416 kts 185°
2026-05-07 00:25 -23.72480 -49.23603 34130 ft 416 kts 185°
2026-05-07 00:25 -23.78272 -49.23730 34137 ft 416 kts 185°
2026-05-07 00:26 -23.84065 -49.23857 34142 ft 416 kts 185°
2026-05-07 00:26 -23.89849 -49.23985 34144 ft 416 kts 185°
2026-05-07 00:27 -23.95640 -49.24111 34146 ft 416 kts 185°
2026-05-07 00:27 -24.01396 -49.24234 34152 ft 416 kts 185°
2026-05-07 00:28 -24.07185 -49.24362 34147 ft 416 kts 185°
2026-05-07 00:28 -24.12966 -49.24486 34159 ft 415 kts 185°
2026-05-07 00:29 -24.18663 -49.24607 34165 ft 415 kts 185°
2026-05-07 00:30 -24.30243 -49.24870 34162 ft 415 kts 185°
2026-05-07 00:30 -24.36026 -49.24999 34166 ft 415 kts 185°
2026-05-07 00:31 -24.41808 -49.25126 34163 ft 415 kts 185°
2026-05-07 00:31 -24.47549 -49.25255 34168 ft 415 kts 185°
2026-05-07 00:32 -24.53320 -49.25381 34165 ft 415 kts 186°
2026-05-07 00:32 -24.59096 -49.25509 34162 ft 415 kts 186°
2026-05-07 00:33 -24.64873 -49.25637 34157 ft 414 kts 186°
2026-05-07 00:33 -24.70654 -49.25764 34153 ft 415 kts 186°
2026-05-07 00:34 -24.76322 -49.25891 34167 ft 415 kts 186°
2026-05-07 00:34 -24.82111 -49.26021 34160 ft 415 kts 186°
2026-05-07 00:35 -24.87881 -49.26148 34163 ft 415 kts 186°
2026-05-07 00:35 -24.93665 -49.26278 34167 ft 415 kts 186°
2026-05-07 00:36 -24.99412 -49.26404 34159 ft 415 kts 186°
2026-05-07 00:36 -25.05192 -49.26533 34172 ft 415 kts 186°
2026-05-07 00:37 -25.10982 -49.26662 34196 ft 415 kts 186°
2026-05-07 00:37 -25.16792 -49.26794 34206 ft 416 kts 186°
2026-05-07 00:38 -25.22587 -49.26924 34229 ft 416 kts 186°
2026-05-07 00:38 -25.28362 -49.27051 34245 ft 416 kts 186°
2026-05-07 00:39 -25.33119 -49.27157 34259 ft 416 kts 186°
2026-05-07 00:39 -25.39897 -49.27309 34261 ft 416 kts 186°
2026-05-07 00:40 -25.44712 -49.27418 34261 ft 416 kts 186°
2026-05-07 00:40 -25.51487 -49.27572 34262 ft 416 kts 187°
2026-05-07 00:41 -25.56304 -49.27679 34260 ft 417 kts 187°
2026-05-07 00:41 -25.62099 -49.27812 34250 ft 417 kts 187°
2026-05-07 00:42 -25.67869 -49.27935 34237 ft 417 kts 186°
2026-05-07 00:42 -25.73713 -49.27114 34222 ft 427 kts 175°
2026-05-07 00:43 -25.79542 -49.25814 34198 ft 427 kts 175°
2026-05-07 00:43 -25.85329 -49.24554 34176 ft 427 kts 175°
2026-05-07 00:44 -25.91104 -49.23314 34187 ft 427 kts 175°
2026-05-07 00:44 -25.96951 -49.22052 34179 ft 427 kts 175°
2026-05-07 00:45 -26.02788 -49.20787 34166 ft 427 kts 175°
2026-05-07 00:45 -26.08550 -49.19376 34165 ft 432 kts 171°
2026-05-07 00:46 -26.14359 -49.17445 34159 ft 433 kts 170°
2026-05-07 00:46 -26.20135 -49.15510 34112 ft 433 kts 170°
2026-05-07 00:47 -26.23013 -49.14548 33919 ft 432 kts 170°
2026-05-07 00:47 -26.25898 -49.13581 33681 ft 433 kts 170°
2026-05-07 00:47 -26.28796 -49.12611 33422 ft 434 kts 170°
2026-05-07 00:47 -26.31694 -49.11641 33165 ft 436 kts 170°
2026-05-07 00:48 -26.34604 -49.10664 32911 ft 437 kts 170°
2026-05-07 00:48 -26.37515 -49.09686 32668 ft 438 kts 170°
2026-05-07 00:48 -26.40443 -49.08702 32414 ft 439 kts 170°
2026-05-07 00:48 -26.43335 -49.07732 32171 ft 440 kts 169°
2026-05-07 00:49 -26.46211 -49.06766 31937 ft 442 kts 170°
2026-05-07 00:49 -26.49149 -49.05778 31691 ft 443 kts 169°
2026-05-07 00:49 -26.52102 -49.04788 31136 ft 441 kts 170°
2026-05-07 00:49 -26.55053 -49.03912 30450 ft 437 kts 172°
2026-05-07 00:50 -26.58007 -49.03077 29613 ft 436 kts 172°
2026-05-07 00:50 -26.60945 -49.02252 28819 ft 436 kts 171°
2026-05-07 00:50 -26.63874 -49.01428 28101 ft 433 kts 171°
2026-05-07 00:50 -26.66787 -49.00607 27438 ft 431 kts 171°
2026-05-07 00:51 -26.69740 -48.99773 26749 ft 429 kts 171°
2026-05-07 00:51 -26.72617 -48.98960 26103 ft 427 kts 171°
2026-05-07 00:51 -26.75472 -48.98075 25471 ft 428 kts 165°
2026-05-07 00:51 -26.78251 -48.96848 24838 ft 429 kts 161°
2026-05-07 00:52 -26.80957 -48.95565 24192 ft 427 kts 161°
2026-05-07 00:52 -26.83681 -48.94263 23500 ft 424 kts 160°
2026-05-07 00:52 -26.86393 -48.92970 22764 ft 423 kts 160°
2026-05-07 00:52 -26.89103 -48.91682 22049 ft 422 kts 160°
2026-05-07 00:53 -26.91797 -48.90377 21285 ft 422 kts 157°
2026-05-07 00:53 -26.94322 -48.88647 20229 ft 430 kts 148°
2026-05-07 00:53 -26.96787 -48.86696 19200 ft 436 kts 146°
2026-05-07 00:53 -26.99253 -48.84731 18468 ft 432 kts 146°
2026-05-07 00:54 -27.01619 -48.82867 17784 ft 426 kts 146°
2026-05-07 00:54 -27.04036 -48.80980 17123 ft 419 kts 146°
2026-05-07 00:54 -27.06422 -48.79127 16511 ft 413 kts 146°
2026-05-07 00:54 -27.08729 -48.77336 15952 ft 406 kts 146°
2026-05-07 00:55 -27.11033 -48.75545 15408 ft 399 kts 146°
2026-05-07 00:55 -27.13303 -48.73782 14871 ft 394 kts 146°
2026-05-07 00:55 -27.15557 -48.72032 14329 ft 389 kts 146°
2026-05-07 00:55 -27.17758 -48.70320 13785 ft 384 kts 146°
2026-05-07 00:56 -27.19940 -48.68623 13204 ft 379 kts 146°
2026-05-07 00:56 -27.22106 -48.66936 12675 ft 378 kts 145°
2026-05-07 00:56 -27.24269 -48.65249 12159 ft 378 kts 145°
2026-05-07 00:56 -27.26440 -48.63556 11612 ft 379 kts 145°
2026-05-07 00:57 -27.28568 -48.61896 11213 ft 371 kts 145°
2026-05-07 00:57 -27.30626 -48.60293 10956 ft 358 kts 145°
2026-05-07 00:57 -27.32642 -48.58720 10748 ft 344 kts 145°
2026-05-07 00:57 -27.34565 -48.57218 10569 ft 330 kts 145°
2026-05-07 00:58 -27.36441 -48.55754 10391 ft 317 kts 145°
2026-05-07 00:58 -27.38197 -48.54383 10205 ft 305 kts 145°
2026-05-07 00:58 -27.39931 -48.53027 9777 ft 303 kts 145°
2026-05-07 00:58 -27.41643 -48.51689 9278 ft 302 kts 145°
2026-05-07 00:59 -27.45043 -48.49029 8383 ft 299 kts 144°
2026-05-07 00:59 -27.46743 -48.47697 7971 ft 297 kts 145°
2026-05-07 00:59 -27.48435 -48.46373 7523 ft 296 kts 145°
2026-05-07 01:00 -27.50128 -48.45046 7117 ft 294 kts 145°
2026-05-07 01:00 -27.51796 -48.43739 6708 ft 290 kts 145°
2026-05-07 01:00 -27.53455 -48.42438 6264 ft 289 kts 145°
2026-05-07 01:00 -27.55099 -48.41151 5846 ft 288 kts 144°
2026-05-07 01:01 -27.56743 -48.39861 5454 ft 288 kts 144°
2026-05-07 01:01 -27.58387 -48.38570 5078 ft 289 kts 144°
2026-05-07 01:01 -27.60032 -48.37276 4697 ft 287 kts 143°
2026-05-07 01:01 -27.61640 -48.36013 4305 ft 284 kts 143°
2026-05-07 01:02 -27.63257 -48.34743 4025 ft 279 kts 143°
2026-05-07 01:02 -27.64807 -48.33526 3964 ft 263 kts 143°
2026-05-07 01:02 -27.66268 -48.32413 3952 ft 244 kts 148°
2026-05-07 01:02 -27.67791 -48.31850 3971 ft 218 kts 176°
2026-05-07 01:03 -27.69183 -48.32167 3923 ft 195 kts 206°
2026-05-07 01:03 -27.70340 -48.32935 3560 ft 195 kts 215°
2026-05-07 01:03 -27.71519 -48.33780 3127 ft 208 kts 214°
2026-05-07 01:03 -27.72819 -48.34684 2824 ft 224 kts 214°
2026-05-07 01:04 -27.74106 -48.35577 2551 ft 223 kts 216°
2026-05-07 01:04 -27.75156 -48.36803 2165 ft 215 kts 246°
2026-05-07 01:04 -27.75581 -48.38346 1879 ft 196 kts 277°
2026-05-07 01:04 -27.75113 -48.39604 1752 ft 158 kts 314°
2026-05-07 01:05 -27.74500 -48.40483 1601 ft 131 kts 310°
2026-05-07 01:05 -27.74021 -48.41353 1600 ft 130 kts 307°
2026-05-07 01:05 -27.73550 -48.42222 1632 ft 130 kts 306°
2026-05-07 01:05 -27.73081 -48.43087 1629 ft 129 kts 306°
2026-05-07 01:06 -27.72609 -48.43951 1642 ft 129 kts 306°
2026-05-07 01:06 -27.72147 -48.44821 1640 ft 129 kts 305°
2026-05-07 01:06 -27.71676 -48.45675 1599 ft 129 kts 306°
2026-05-07 01:06 -27.71216 -48.46544 1432 ft 130 kts 306°
2026-05-07 01:07 -27.70742 -48.47425 1261 ft 131 kts 305°
2026-05-07 01:07 -27.70269 -48.48307 1072 ft 131 kts 304°
2026-05-07 01:07 -27.69794 -48.49191 891 ft 131 kts 304°
2026-05-07 01:07 -27.69316 -48.50064 703 ft 129 kts 306°
2026-05-07 01:08 -27.68851 -48.50931 515 ft 128 kts 303°
2026-05-07 01:08 -27.68390 -48.51788 329 ft 127 kts 304°
2026-05-07 01:08 -27.67939 -48.52645 160 ft 128 kts 304°
2026-05-07 01:08 -27.67454 -48.53484 30 ft 125 kts 303°
2026-05-07 01:09 -27.67094 -48.54154 29 ft 62 kts 301°
2026-05-07 01:09 -27.66951 -48.54423 30 ft 6 kts 300°
2026-05-07 01:09 -27.66947 -48.54477 30 ft 9 kts 248°
2026-05-07 01:09 -27.66999 -48.54523 30 ft 11 kts 210°
2026-05-07 01:10 -27.67070 -48.54570 29 ft 13 kts 210°
2026-05-07 01:10 -27.67159 -48.54613 30 ft 15 kts 179°
2026-05-07 01:10 -27.67239 -48.54532 30 ft 17 kts 130°
2026-05-07 01:10 -27.67292 -48.54538 29 ft 5 kts 220°
2026-05-07 01:11 -27.67293 -48.54538 29 ft 0 kts 219°